Location: Saratoga Springs
(43.0831°N, 73.7850°W)
Time: 17:09:48
(UTC-04:00)

A-11 Canister half - All Passes

Search period start: 12 April 2024 00:00
Search period end: 22 April 2024 00:00
Orbit: 1513 x 1687 km, 47.2° (Epoch: 11 April)

Date Brightness Start Highest point End Pass type
(mag) Time Alt. Az. Time Alt. Az. Time Alt. Az.
12 Apr - 12:09:35 10° S 12:17:18 30° SE 12:25:12 10° ENE daylight
12 Apr - 14:11:49 10° SW 14:21:12 79° SSE 14:30:58 10° ENE daylight
12 Apr - 16:17:00 10° W 16:26:33 70° N 16:36:30 10° E daylight
12 Apr - 18:22:26 10° WNW 18:32:15 84° NNE 18:42:23 10° ESE daylight
12 Apr - 20:27:36 10° WNW 20:36:55 48° SW 20:46:27 10° SSE visible
12 Apr - 22:36:16 10° W 22:40:06 13° WSW 22:43:57 10° SW visible
13 Apr - 11:46:56 10° S 11:54:26 28° SE 12:02:04 10° ENE daylight
13 Apr - 13:48:53 10° SW 13:58:14 76° SSE 14:07:56 10° ENE daylight
13 Apr - 15:53:59 10° W 16:03:31 71° N 16:13:25 10° ENE daylight
13 Apr - 17:59:27 10° WNW 18:09:13 82° NNE 18:19:20 10° ESE daylight
13 Apr - 20:04:35 10° WNW 20:13:58 51° SW 20:23:34 10° SSE visible
13 Apr - 22:12:37 10° W 22:17:13 14° WSW 22:21:52 10° SSW visible
14 Apr - 11:24:19 10° S 11:31:33 26° SE 11:38:55 10° ENE daylight
14 Apr - 13:25:59 10° SW 13:35:16 74° SSE 13:44:54 10° ENE daylight
14 Apr - 15:30:59 10° W 15:40:29 71° N 15:50:22 10° ENE daylight
14 Apr - 17:36:27 10° WNW 17:46:12 80° NNE 17:56:16 10° ESE daylight
14 Apr - 19:41:35 10° WNW 19:51:00 53° SW 20:00:41 10° SE daylight
14 Apr - 21:49:08 10° W 21:54:21 16° WSW 21:59:38 10° SSW visible
15 Apr - 11:01:43 10° S 11:08:40 24° SE 11:15:45 10° E daylight
15 Apr - 13:03:04 10° SW 13:12:18 71° SSE 13:21:53 10° ENE daylight
15 Apr - 15:07:58 10° W 15:17:26 72° N 15:27:18 10° ENE daylight
15 Apr - 17:13:28 10° WNW 17:23:10 79° NNE 17:33:13 10° ESE daylight
15 Apr - 19:18:35 10° WNW 19:28:02 56° SW 19:37:47 10° SE daylight
15 Apr - 21:25:44 10° W 21:31:28 17° SW 21:37:16 10° SSW visible
16 Apr - 10:39:10 10° S 10:45:49 23° SE 10:52:33 10° E daylight
16 Apr - 12:40:10 10° SW 12:49:21 68° SSE 12:58:51 10° ENE daylight
16 Apr - 14:44:58 10° W 14:54:25 73° N 15:04:14 10° ENE daylight
16 Apr - 16:50:29 10° WNW 17:00:08 77° NNE 17:10:09 10° ESE daylight
16 Apr - 18:55:34 10° WNW 19:05:04 59° SW 19:14:51 10° SE daylight
16 Apr - 21:02:24 10° W 21:08:35 19° SW 21:14:51 10° SSW visible
17 Apr - 10:16:38 10° S 10:22:57 21° SE 10:29:20 10° E daylight
17 Apr - 12:17:17 10° SW 12:26:24 65° SE 12:35:50 10° ENE daylight
17 Apr - 14:21:58 10° W 14:31:23 74° NNW 14:41:11 10° ENE daylight
17 Apr - 16:27:29 10° WNW 16:37:06 76° NNE 16:47:05 10° E daylight
17 Apr - 18:32:34 10° WNW 18:42:06 61° SW 18:51:56 10° SE daylight
17 Apr - 20:39:08 10° W 20:45:41 20° SW 20:52:21 10° SSW visible
18 Apr - 09:54:10 10° SSE 10:00:06 19° SE 10:06:05 10° E daylight
18 Apr - 11:54:24 10° SW 12:03:28 61° SE 12:12:48 10° ENE daylight
18 Apr - 13:58:58 10° W 14:08:22 75° NNW 14:18:08 10° ENE daylight
18 Apr - 16:04:29 10° WNW 16:14:04 75° NNE 16:24:00 10° E daylight
18 Apr - 18:09:35 10° WNW 18:19:07 64° SW 18:28:59 10° SE daylight
18 Apr - 20:15:55 10° W 20:22:47 22° SW 20:29:49 10° S visible
19 Apr - 09:31:45 10° SSE 09:37:14 17° SE 09:42:46 10° E daylight
19 Apr - 11:31:32 10° SW 11:40:31 58° SE 11:49:46 10° ENE daylight
19 Apr - 13:35:58 10° W 13:45:21 76° NNW 13:55:05 10° ENE daylight
19 Apr - 15:41:29 10° WNW 15:51:02 73° N 16:00:56 10° E daylight
19 Apr - 17:46:35 10° WNW 17:56:09 67° SSW 18:06:02 10° SE daylight
19 Apr - 19:52:43 10° W 19:59:54 23° SW 20:07:14 10° S daylight
20 Apr - 09:09:24 10° SSE 09:14:23 16° SE 09:19:24 10° E daylight
20 Apr - 11:08:41 10° SW 11:17:36 56° SE 11:26:45 10° ENE daylight
20 Apr - 13:12:58 10° WSW 13:22:20 78° NNW 13:32:02 10° ENE daylight
20 Apr - 15:18:30 10° WNW 15:28:00 72° N 15:37:52 10° E daylight
20 Apr - 17:23:37 10° WNW 17:33:10 70° SSW 17:43:05 10° SE daylight
20 Apr - 19:29:33 10° W 19:36:59 25° SW 19:44:36 10° S daylight
21 Apr - 08:47:09 10° SSE 08:51:32 14° ESE 08:55:58 10° E daylight
21 Apr - 10:45:50 10° SW 10:54:40 53° SE 11:03:42 10° ENE daylight
21 Apr - 12:49:58 10° WSW 12:59:19 79° NNW 13:09:00 10° ENE daylight
21 Apr - 14:55:30 10° WNW 15:04:58 71° N 15:14:47 10° E daylight
21 Apr - 17:00:38 10° WNW 17:10:11 73° SSW 17:20:06 10° SE daylight
21 Apr - 19:06:25 10° WNW 19:14:05 27° SW 19:21:56 10° S daylight
